• Em Portugal
  • Lista de países
  • Para 7 dias
  • Temperatura da água
  • Mapas de satélite
  • Mapa do tempo
  • Widgets de tempo
  • user-avatar
    Iniciar Sessão

    Previsão horária em Lisboa

    Hoje, 24 Setembro, Segunda-feira

    Tempo Temperatura Precipitação Vento Pressão Humidade
    00:00 +23°C° 0 mm 5 m/s 761 mmHg 57%
    01:00 +22°C° 0 mm 4 m/s 760 mmHg 58%
    02:00 +22°C° 0 mm 4 m/s 760 mmHg 59%
    03:00 +22°C° 0 mm 4 m/s 760 mmHg 58%
    04:00 +22°C° 0 mm 3 m/s 760 mmHg 56%
    05:00 +22°C° 0 mm 4 m/s 760 mmHg 56%
    06:00 +26°C° 0 mm 3 m/s 760 mmHg 47%
    07:00 +28°C° 0 mm 3 m/s 760 mmHg 38%
    08:00 +31°C° 0 mm 3 m/s 760 mmHg 29%
    09:00 +35°C° 0 mm 3 m/s 760 mmHg 25%
    10:00 +37°C° 0 mm 3 m/s 760 mmHg 22%
    11:00 +39°C° 0 mm 3 m/s 761 mmHg 20%
    12:00 +40°C° 0 mm 3 m/s 760 mmHg 19%
    13:00 +41°C° 0 mm 4 m/s 760 mmHg 18%
    14:00 +42°C° 0 mm 4 m/s 759 mmHg 18%
    15:00 +40°C° 0 mm 5 m/s 759 mmHg 20%
    16:00 +37°C° 0 mm 5 m/s 759 mmHg 23%
    17:00 +36°C° 0 mm 5 m/s 759 mmHg 26%
    18:00 +34°C° 0 mm 5 m/s 759 mmHg 32%
    19:00 +30°C° 0 mm 5 m/s 759 mmHg 38%
    20:00 +28°C° 0 mm 5 m/s 759 mmHg 44%
    21:00 +27°C° 0 mm 4 m/s 759 mmHg 47%
    22:00 +27°C° 0 mm 4 m/s 759 mmHg 50%
    23:00 +26°C° 0 mm 3 m/s 759 mmHg 52%

    Amanhã, 25 Setembro, Terça-feira

    Tempo Temperatura Precipitação Vento Pressão Humidade
    00:00 +25°C° 0 mm 3 m/s 759 mmHg 52%
    01:00 +25°C° 0 mm 3 m/s 759 mmHg 52%
    02:00 +25°C° 0 mm 2 m/s 759 mmHg 52%
    03:00 +24°C° 0 mm 2 m/s 759 mmHg 52%
    04:00 +24°C° 0 mm 2 m/s 759 mmHg 52%
    05:00 +24°C° 0 mm 2 m/s 759 mmHg 52%
    06:00 +26°C° 0 mm 2 m/s 759 mmHg 46%
    07:00 +28°C° 0 mm 2 m/s 759 mmHg 41%
    08:00 +30°C° 0 mm 2 m/s 760 mmHg 36%
    09:00 +32°C° 0 mm 2 m/s 760 mmHg 32%
    10:00 +35°C° 0 mm 2 m/s 759 mmHg 29%
    11:00 +37°C° 0 mm 3 m/s 759 mmHg 25%
    12:00 +37°C° 0 mm 3 m/s 759 mmHg 25%
    13:00 +37°C° 0 mm 3 m/s 759 mmHg 25%
    14:00 +37°C° 0 mm 4 m/s 759 mmHg 25%
    15:00 +35°C° 0 mm 3 m/s 759 mmHg 29%
    16:00 +33°C° 0 mm 3 m/s 759 mmHg 33%
    17:00 +31°C° 0 mm 3 m/s 759 mmHg 38%
    18:00 +29°C° 0 mm 2 m/s 759 mmHg 44%
    19:00 +27°C° 0 mm 2 m/s 759 mmHg 50%
    20:00 +25°C° 0 mm 1 m/s 760 mmHg 57%
    21:00 +24°C° 0 mm 1 m/s 760 mmHg 58%
    22:00 +24°C° 0 mm 1 m/s 760 mmHg 60%
    23:00 +24°C° 0 mm 1 m/s 760 mmHg 61%

    Depois de amanhã, 26 Setembro, Quarta-feira

    Tempo Temperatura Precipitação Vento Pressão Humidade
    00:00 +24°C° 0 mm 1 m/s 760 mmHg 62%
    01:00 +24°C° 0 mm 2 m/s 760 mmHg 62%
    02:00 +23°C° 0 mm 2 m/s 760 mmHg 63%
    03:00 +23°C° 0 mm 2 m/s 760 mmHg 66%
    04:00 +23°C° 0 mm 2 m/s 760 mmHg 68%
    05:00 +23°C° 0 mm 2 m/s 760 mmHg 71%
    06:00 +25°C° 0 mm 2 m/s 760 mmHg 66%
    07:00 +26°C° 0 mm 2 m/s 761 mmHg 61%
    08:00 +28°C° 0 mm 2 m/s 761 mmHg 56%
    09:00 +31°C° 0 mm 2 m/s 761 mmHg 48%
    10:00 +34°C° 0 mm 2 m/s 761 mmHg 41%
    11:00 +36°C° 0 mm 2 m/s 761 mmHg 33%
    12:00 +37°C° 0 mm 2 m/s 761 mmHg 31%
    13:00 +37°C° 0 mm 3 m/s 761 mmHg 29%
    14:00 +38°C° 0 mm 3 m/s 760 mmHg 28%
    15:00 +36°C° 0 mm 3 m/s 760 mmHg 34%
    16:00 +34°C° 0 mm 3 m/s 760 mmHg 41%
    17:00 +32°C° 0 mm 4 m/s 760 mmHg 48%
    18:00 +29°C° 0 mm 4 m/s 761 mmHg 55%
    19:00 +27°C° 0 mm 3 m/s 761 mmHg 63%
    20:00 +25°C° 0 mm 3 m/s 762 mmHg 70%
    21:00 +25°C° 0 mm 3 m/s 762 mmHg 72%
    22:00 +24°C° 0 mm 3 m/s 762 mmHg 74%
    23:00 +24°C° 0 mm 3 m/s 762 mmHg 76%

    27 Setembro, Quinta-feira

    Tempo Temperatura Precipitação Vento Pressão Humidade
    00:00 +23°C° 0 mm 2 m/s 762 mmHg 78%
    01:00 +23°C° 0 mm 2 m/s 762 mmHg 79%
    02:00 +21°C° 0 mm 2 m/s 762 mmHg 80%
    03:00 +21°C° 0 mm 2 m/s 762 mmHg 81%
    04:00 +22°C° 0 mm 1 m/s 762 mmHg 81%
    05:00 +22°C° 0 mm 1 m/s 762 mmHg 81%
    06:00 +24°C° 0 mm 2 m/s 762 mmHg 73%
    07:00 +26°C° 0 mm 2 m/s 763 mmHg 64%
    08:00 +28°C° 0 mm 2 m/s 763 mmHg 55%
    09:00 +30°C° 0 mm 2 m/s 763 mmHg 48%
    10:00 +34°C° 0 mm 2 m/s 763 mmHg 41%
    11:00 +36°C° 0 mm 2 m/s 763 mmHg 34%
    12:00 +36°C° 0 mm 3 m/s 762 mmHg 33%
    13:00 +37°C° 0 mm 3 m/s 762 mmHg 32%
    14:00 +37°C° 0 mm 4 m/s 761 mmHg 31%
    15:00 +35°C° 0.4 mm 4 m/s 761 mmHg 37%
    16:00 +33°C° 0.4 mm 5 m/s 761 mmHg 42%
    17:00 +30°C° 0.4 mm 5 m/s 761 mmHg 48%
    18:00 +28°C° 0.4 mm 5 m/s 762 mmHg 53%
    19:00 +27°C° 0.4 mm 5 m/s 762 mmHg 59%
    20:00 +26°C° 0.4 mm 5 m/s 762 mmHg 64%
    21:00 +25°C° 0.6 mm 5 m/s 762 mmHg 66%
    22:00 +25°C° 0.6 mm 5 m/s 762 mmHg 67%
    23:00 +23°C° 0.6 mm 4 m/s 762 mmHg 69%

    28 Setembro, Sexta-feira

    Tempo Temperatura Precipitação Vento Pressão Humidade
    00:00 +23°C° 0.3 mm 4 m/s 761 mmHg 69%
    01:00 +23°C° 0.3 mm 4 m/s 761 mmHg 69%
    02:00 +22°C° 0.3 mm 3 m/s 760 mmHg 68%
    03:00 +22°C° 0.1 mm 3 m/s 760 mmHg 68%
    04:00 +22°C° 0.1 mm 3 m/s 760 mmHg 67%
    05:00 +23°C° 0.1 mm 2 m/s 760 mmHg 67%
    06:00 +24°C° 0 mm 2 m/s 760 mmHg 62%
    07:00 +26°C° 0 mm 2 m/s 761 mmHg 56%
    08:00 +27°C° 0 mm 2 m/s 761 mmHg 51%
    09:00 +30°C° 0 mm 3 m/s 761 mmHg 45%
    10:00 +33°C° 0 mm 3 m/s 760 mmHg 40%
    11:00 +35°C° 0 mm 3 m/s 760 mmHg 34%
    12:00 +35°C° 0 mm 4 m/s 760 mmHg 34%
    13:00 +35°C° 0 mm 4 m/s 759 mmHg 34%
    14:00 +35°C° 0 mm 5 m/s 758 mmHg 34%
    15:00 +33°C° 0 mm 5 m/s 758 mmHg 39%
    16:00 +30°C° 0 mm 5 m/s 758 mmHg 44%
    17:00 +29°C° 0 mm 5 m/s 758 mmHg 49%
    18:00 +27°C° 0.2 mm 5 m/s 758 mmHg 54%
    19:00 +26°C° 0.2 mm 5 m/s 759 mmHg 59%
    20:00 +25°C° 0.2 mm 5 m/s 759 mmHg 65%
    21:00 +23°C° 0.4 mm 4 m/s 759 mmHg 67%
    22:00 +22°C° 0.4 mm 4 m/s 758 mmHg 70%
    23:00 +22°C° 0.4 mm 4 m/s 758 mmHg 73%

    29 Setembro, Sábado

    Tempo Temperatura Precipitação Vento Pressão Humidade
    00:00 +22°C° 0.5 mm 4 m/s 758 mmHg 74%
    01:00 +21°C° 0.5 mm 3 m/s 758 mmHg 75%
    02:00 +21°C° 0.5 mm 3 m/s 757 mmHg 77%
    03:00 +21°C° 0.3 mm 3 m/s 757 mmHg 78%
    04:00 +21°C° 0.3 mm 3 m/s 757 mmHg 78%
    05:00 +21°C° 0.3 mm 3 m/s 757 mmHg 79%
    06:00 +23°C° 0.2 mm 2 m/s 757 mmHg 72%
    07:00 +25°C° 0.2 mm 2 m/s 758 mmHg 65%
    08:00 +26°C° 0.2 mm 2 m/s 758 mmHg 58%
    09:00 +28°C° 0 mm 2 m/s 758 mmHg 51%
    10:00 +30°C° 0 mm 2 m/s 758 mmHg 44%
    11:00 +34°C° 0 mm 2 m/s 757 mmHg 37%
    12:00 +33°C° 0 mm 3 m/s 757 mmHg 38%
    13:00 +33°C° 0 mm 3 m/s 757 mmHg 39%
    14:00 +33°C° 0 mm 4 m/s 756 mmHg 40%
    15:00 +30°C° 0.4 mm 4 m/s 757 mmHg 47%
    16:00 +28°C° 0.4 mm 4 m/s 757 mmHg 54%
    17:00 +27°C° 0.4 mm 3 m/s 757 mmHg 61%
    18:00 +26°C° 0.5 mm 3 m/s 758 mmHg 66%
    19:00 +24°C° 0.5 mm 3 m/s 758 mmHg 71%
    20:00 +23°C° 0.5 mm 2 m/s 759 mmHg 77%
    21:00 +23°C° 0.1 mm 2 m/s 759 mmHg 77%
    22:00 +23°C° 0.1 mm 2 m/s 758 mmHg 77%
    23:00 +23°C° 0.1 mm 1 m/s 758 mmHg 77%
    Mostrar mais